Flag for Norway Weather past 2 weeks in Hommersåk, Norway

Now
61 °F

Light rain. Broken clouds.


Feels Like: 61 °F
Forecast: 55 / 60 °F
Wind: 5 mph from Northwest

Location: Stavanger / Sola

Current Time: Jul 29, 2015 at 10:39:53 PM

Latest Report: Jul 29, 2015 at 9:50 PM


Visibility: N/A

Pressure: 29.45 "Hg

Humidity: 83%

Dew point: 55 °F

Location of HommersåkLocation

Historic Weather in Hommersåk — Graph

°F

Hommersåk temperature yesterday

Maximum temperature yesterday: 64 °F (at 3:20 PM)
Minimum temperature yesterday: 55 °F (at 3:50 AM)
Average temperature yesterday: 60 °F

Past Weeks' High & Low Weather Summary

 TemperatureHumidityPressure
High70 °F (Jul 17, 1:50 PM)100% (Jul 18, 6:20 AM)30.15 "Hg (Jul 18, 6:20 AM)
Low45 °F (Jul 17, 4:50 AM)37% (Jul 17, 5:50 PM)29.39 "Hg (Jul 29, 9:20 AM)
Average57 °F80%29.74 "Hg
* Reported Jul 14 8:20 PM — Jul 29 8:50 PM, Hommersåk, Weather by CustomWeather, © 2015

Note: Actual official high and low records may vary slightly from our data, if they occured in-between our weather recording intervals... More about our weather records

Advertising

Hommersåk weather history for previous 24 hours

 ConditionsComfort  
Time TempWeatherWind HumidityBarometerVisibility
8:50 PM
Wed, Jul 29
63 °FPartly sunny.8 mph77%29.42 "HgN/A
8:20 PM64 °FBroken clouds.8 mph73%29.42 "HgN/A
7:50 PM64 °FBroken clouds.10 mph73%29.42 "HgN/A
7:20 PM66 °FPartly sunny.9 mph68%29.42 "HgN/A
6:50 PM66 °FPartly sunny.8 mph64%29.42 "HgN/A
6:20 PM64 °FPartly sunny.10 mph73%29.39 "HgN/A
5:50 PM64 °FPartly sunny.13 mph73%29.39 "HgN/A
5:20 PM66 °FPartly sunny.12 mph68%29.39 "HgN/A
4:50 PM64 °FBroken clouds.13 mph73%29.39 "HgN/A
4:20 PM66 °FBroken clouds.12 mph73%29.39 "HgN/A
3:50 PM66 °FPartly sunny.12 mph73%29.39 "HgN/A
3:20 PM64 °FPartly sunny.9 mph73%29.39 "HgN/A
2:50 PM63 °FPartly sunny.9 mph77%29.39 "HgN/A
2:20 PM61 °FLight rain. Broken clouds.7 mph83%29.39 "HgN/A
1:50 PM63 °FLight rain. Broken clouds.10 mph77%29.39 "HgN/A
1:20 PM61 °FDrizzle. Broken clouds.8 mph83%29.39 "HgN/A
12:50 PM61 °FLight rain. Partly sunny.7 mph77%29.39 "HgN/A
12:20 PM59 °FLight rain. Partly sunny.7 mph82%29.39 "HgN/A
11:50 AM61 °FLight rain. Partly sunny.8 mph77%29.39 "HgN/A
11:20 AM61 °FDrizzle. Partly sunny.7 mph77%29.39 "HgN/A
10:50 AM61 °FPartly sunny.7 mph77%29.39 "HgN/A
10:20 AM59 °FPartly sunny.5 mph88%29.39 "HgN/A
9:50 AM59 °FSunny.7 mph88%29.39 "Hg10 mi
9:20 AM59 °FSunny.7 mph88%29.39 "Hg10 mi
8:50 AM59 °FPassing clouds.3 mph88%29.42 "HgN/A
8:20 AM57 °FSunny.5 mph88%29.42 "Hg10 mi
7:50 AM57 °FSunny.3 mph94%29.42 "Hg10 mi
7:20 AM57 °FSunny.6 mph94%29.42 "Hg10 mi
6:50 AM57 °FSunny.3 mph88%29.42 "Hg10 mi
6:20 AM55 °FSunny.1 mph100%29.42 "Hg10 mi
5:50 AM55 °FClear.No wind94%29.45 "Hg10 mi
4:50 AM55 °FClear.No wind94%29.45 "Hg10 mi
3:50 AM57 °FClear.No wind88%29.45 "Hg10 mi
2:50 AM57 °FClear.3 mph88%29.47 "Hg10 mi
1:50 AM57 °FClear.5 mph88%29.47 "Hg10 mi
1:20 AM59 °FClear.3 mph82%29.47 "Hg10 mi
12:50 AM59 °FClear.6 mph82%29.47 "Hg10 mi
12:20 AM59 °FClear.2 mph82%29.47 "Hg10 mi
11:50 PM
Tue, Jul 28
59 °FClear.3 mph82%29.50 "Hg10 mi
11:20 PM59 °FClear.2 mph82%29.50 "Hg10 mi
10:50 PM61 °FSunny.2 mph77%29.50 "Hg10 mi
10:20 PM61 °FSunny.3 mph77%29.50 "Hg10 mi
Weather by CustomWeather, © 2015

See weather overviewHow to use our weather pages